MAYA-3 (49273 NORAD) Tracking and Keplerian Element Data

This shows tracking and keplerian element data for the satellite.

Feedback or suggestion? Click here.




ElementValue
Catalog49273
NameMAYA-3
Epoch Orbit948
Epoch Day339.89699151
Epoch Year2021
RAAN212.7147
Inclination51.6399
Eccentricity0.0002855
Argument of Perigee310.9624
Mean Anonmoly49.1118
Mean Motion15.52112576
Decay Rate0.00015319
L11 49273U 98067SS 21339.89699151 .00015319 00000+0 25603-3 0 9998
L22 49273 51.6399 212.7147 0002855 310.9624 49.1118 15.52112576 9489

Live tracking and technical data element details for MAYA-3 (NORAD 49273). MAYA-3 can be tracked NOW for your location showing map with azimuth and elevation plus other details from your city location.

Track the satellite on the map from your city or location and see movement details for azimuth, elevation, latitude, longitude, range, height, and movement on the map or in text.







IsCatalogInMostPopularTable: catalog: 49273, numindb: 15
Update: records affected: 1



GetName: 49273 MAYA-3

Hit Count: updated at: Mon, 06 Dec 2021 15:28:21 GMT